Time,TemperatureF,DewpointF,PressureIn,WindDirection,WindDirectionDegrees,WindSpeedMPH,WindSpeedGustMPH,Humidity,HourlyPrecipIn,Conditions,Clouds,dailyrainin,SoftwareType,DateUTC
2013-09-01 00:00:00,71.5,0.0,29.70,WSW,248,0.4,1.1,0,0.00,,,0.00,WUHU216HW,2013-09-01 04:00:00,
2013-09-01 00:05:00,71.3,0.0,29.70,WSW,248,0.0,0.7,0,0.00,,,0.00,WUHU216HW,2013-09-01 04:05:00,
2013-09-01 00:10:00,71.3,0.0,29.71,SW,225,1.6,1.6,0,0.00,,,0.00,WUHU216HW,2013-09-01 04:10:00,
2013-09-01 00:15:00,71.1,0.0,29.70,SW,225,0.0,1.6,0,0.00,,,0.00,WUHU216HW,2013-09-01 04:15:00,
2013-09-01 00:20:00,70.9,0.0,29.71,SW,225,0.0,1.6,0,0.00,,,0.00,WUHU216HW,2013-09-01 04:20:00,
2013-09-01 00:25:00,70.9,0.0,29.71,SW,225,0.4,0.4,0,0.00,,,0.00,WUHU216HW,2013-09-01 04:25:00,
2013-09-01 00:31:00,70.9,0.0,29.71,SW,225,0.0,0.4,0,0.00,,,0.00,WUHU216HW,2013-09-01 04:31:00,
2013-09-01 00:36:00,70.7,0.0,29.71,SSW,203,0.4,0.9,0,0.00,,,0.00,WUHU216HW,2013-09-01 04:36:00,
2013-09-01 00:41:00,70.6,0.0,29.70,SSW,203,0.9,0.9,0,0.00,,,0.00,WUHU216HW,2013-09-01 04:41:00,
2013-09-01 00:46:00,70.6,0.0,29.70,SW,225,0.4,0.9,0,0.00,,,0.00,WUHU216HW,2013-09-01 04:46:00,
2013-09-01 00:51:00,70.6,0.0,29.70,SW,225,0.7,0.9,0,0.00,,,0.00,WUHU216HW,2013-09-01 04:51:00,
2013-09-01 00:56:00,70.4,0.0,29.70,SW,225,0.9,0.9,0,0.00,,,0.00,WUHU216HW,2013-09-01 04:56:00,
2013-09-01 01:01:00,70.4,0.0,29.69,SW,225,0.0,1.1,0,0.00,,,0.00,WUHU216HW,2013-09-01 05:01:00,
2013-09-01 01:06:00,70.4,0.0,29.69,SW,225,1.1,1.1,0,0.00,,,0.00,WUHU216HW,2013-09-01 05:06:00,
2013-09-01 01:11:00,70.2,0.0,29.69,SW,225,0.7,1.1,0,0.00,,,0.00,WUHU216HW,2013-09-01 05:11:00,
2013-09-01 01:16:00,70.2,0.0,29.69,SW,225,0.9,1.6,0,0.00,,,0.00,WUHU216HW,2013-09-01 05:16:00,
2013-09-01 01:21:00,70.4,0.0,29.69,WSW,248,0.9,2.0,0,0.00,,,0.00,WUHU216HW,2013-09-01 05:21:00,
2013-09-01 01:26:00,70.6,0.0,29.69,WSW,248,0.4,2.0,0,0.00,,,0.00,WUHU216HW,2013-09-01 05:26:00,
2013-09-01 01:31:00,70.6,0.0,29.69,WSW,248,0.0,1.1,0,0.00,,,0.00,WUHU216HW,2013-09-01 05:31:00,
2013-09-01 01:36:00,70.4,0.0,29.70,WSW,248,0.0,0.4,0,0.00,,,0.00,WUHU216HW,2013-09-01 05:36:00,
2013-09-01 01:41:00,70.4,0.0,29.69,WSW,248,0.0,0.0,0,0.00,,,0.00,WUHU216HW,2013-09-01 05:41:00,
2013-09-01 01:46:00,70.2,0.0,29.69,WSW,248,0.0,0.0,0,0.00,,,0.00,WUHU216HW,2013-09-01 05:46:00,
2013-09-01 01:51:00,70.4,0.0,29.69,WSW,248,0.7,0.7,0,0.00,,,0.00,WUHU216HW,2013-09-01 05:51:00,
2013-09-01 01:56:00,70.4,0.0,29.69,WSW,248,0.0,0.7,0,0.00,,,0.00,WUHU216HW,2013-09-01 05:56:00,
2013-09-01 02:01:00,70.4,0.0,29.69,WSW,248,0.9,0.9,0,0.00,,,0.00,WUHU216HW,2013-09-01 06:01:00,
2013-09-01 02:06:00,70.6,0.0,29.69,WSW,248,0.4,0.9,0,0.00,,,0.00,WUHU216HW,2013-09-01 06:06:00,
2013-09-01 02:11:00,70.6,0.0,29.69,WSW,248,0.0,0.7,0,0.00,,,0.00,WUHU216HW,2013-09-01 06:11:00,
2013-09-01 02:16:00,70.6,0.0,29.69,WSW,248,0.0,0.4,0,0.00,,,0.00,WUHU216HW,2013-09-01 06:16:00,
2013-09-01 02:21:00,70.6,0.0,29.70,WSW,248,0.0,0.0,0,0.00,,,0.00,WUHU216HW,2013-09-01 06:21:00,
2013-09-01 02:26:00,70.4,0.0,29.69,WSW,248,0.4,0.4,0,0.00,,,0.00,WUHU216HW,2013-09-01 06:26:00,
2013-09-01 02:31:00,70.4,0.0,29.69,WSW,248,0.0,0.4,0,0.00,,,0.00,WUHU216HW,2013-09-01 06:31:00,
2013-09-01 02:36:00,70.4,0.0,29.69,WSW,248,0.0,0.0,0,0.00,,,0.00,WUHU216HW,2013-09-01 06:36:00,
2013-09-01 02:41:00,70.2,0.0,29.69,WSW,248,0.0,0.0,0,0.00,,,0.00,WUHU216HW,2013-09-01 06:41:00,
2013-09-01 02:46:00,70.2,0.0,29.68,WSW,248,0.0,0.0,0,0.00,,,0.00,WUHU216HW,2013-09-01 06:46:00,
2013-09-01 02:51:00,70.2,0.0,29.69,WSW,248,0.0,0.0,0,0.00,,,0.00,WUHU216HW,2013-09-01 06:51:00,
2013-09-01 02:56:00,70.2,0.0,29.69,WSW,248,0.0,0.0,0,0.00,,,0.00,WUHU216HW,2013-09-01 06:56:00,
2013-09-01 03:01:00,70.2,0.0,29.69,WSW,248,0.0,0.0,0,0.00,,,0.00,WUHU216HW,2013-09-01 07:01:00,
2013-09-01 03:06:00,70.2,0.0,29.68,WSW,248,0.4,0.4,0,0.00,,,0.00,WUHU216HW,2013-09-01 07:06:00,
2013-09-01 03:11:00,70.2,0.0,29.68,WSW,248,0.4,0.7,0,0.00,,,0.00,WUHU216HW,2013-09-01 07:11:00,
2013-09-01 03:16:00,70.2,0.0,29.68,WSW,248,0.0,0.7,0,0.00,,,0.00,WUHU216HW,2013-09-01 07:16:00,
2013-09-01 03:21:00,70.2,0.0,29.68,WSW,248,0.0,0.4,0,0.00,,,0.00,WUHU216HW,2013-09-01 07:21:00,
2013-09-01 03:26:00,70.2,0.0,29.68,WSW,248,0.9,0.9,0,0.00,,,0.00,WUHU216HW,2013-09-01 07:26:00,
2013-09-01 03:31:00,70.4,0.0,29.68,WSW,248,1.1,1.1,0,0.00,,,0.00,WUHU216HW,2013-09-01 07:31:00,
2013-09-01 03:36:00,70.4,0.0,29.68,WSW,248,1.1,1.1,0,0.00,,,0.00,WUHU216HW,2013-09-01 07:36:00,
2013-09-01 03:41:00,70.4,0.0,29.68,WSW,248,0.4,1.1,0,0.00,,,0.00,WUHU216HW,2013-09-01 07:41:00,
2013-09-01 03:46:00,70.4,0.0,29.68,WSW,248,0.4,1.1,0,0.00,,,0.00,WUHU216HW,2013-09-01 07:46:00,
2013-09-01 03:51:00,70.4,0.0,29.68,WSW,248,0.7,1.1,0,0.00,,,0.00,WUHU216HW,2013-09-01 07:51:00,
2013-09-01 03:56:00,70.4,0.0,29.68,WSW,248,0.2,1.1,0,0.00,,,0.00,WUHU216HW,2013-09-01 07:56:00,
2013-09-01 04:01:00,70.4,0.0,29.68,WSW,248,0.9,0.9,0,0.00,,,0.00,WUHU216HW,2013-09-01 08:01:00,
2013-09-01 04:06:00,70.4,0.0,29.68,WSW,248,0.7,0.9,0,0.00,,,0.00,WUHU216HW,2013-09-01 08:06:00,
2013-09-01 04:11:00,70.4,0.0,29.68,WSW,248,0.0,0.9,0,0.00,,,0.00,WUHU216HW,2013-09-01 08:11:00,
2013-09-01 04:16:00,70.4,0.0,29.68,WSW,248,0.0,0.7,0,0.00,,,0.00,WUHU216HW,2013-09-01 08:16:00,
2013-09-01 04:21:00,70.2,0.0,29.68,WSW,248,0.0,0.0,0,0.00,,,0.00,WUHU216HW,2013-09-01 08:21:00,
2013-09-01 04:26:00,70.2,0.0,29.68,WSW,248,0.0,0.0,0,0.00,,,0.00,WUHU216HW,2013-09-01 08:26:00,
2013-09-01 04:31:00,70.4,0.0,29.68,WSW,248,0.0,0.4,0,0.00,,,0.00,WUHU216HW,2013-09-01 08:31:00,
2013-09-01 04:36:00,70.4,0.0,29.68,WSW,248,0.9,1.1,0,0.00,,,0.00,WUHU216HW,2013-09-01 08:36:00,
2013-09-01 04:41:00,70.4,0.0,29.68,WSW,248,0.0,1.1,0,0.00,,,0.00,WUHU216HW,2013-09-01 08:41:00,
2013-09-01 04:46:00,70.4,0.0,29.68,WSW,248,0.9,1.6,0,0.00,,,0.00,WUHU216HW,2013-09-01 08:46:00,
2013-09-01 04:51:00,70.4,0.0,29.69,WSW,248,0.4,1.6,0,0.00,,,0.00,WUHU216HW,2013-09-01 08:51:00,
2013-09-01 04:56:00,70.4,0.0,29.69,WSW,248,0.9,1.1,0,0.00,,,0.00,WUHU216HW,2013-09-01 08:56:00,
2013-09-01 05:01:00,70.4,0.0,29.69,WSW,248,0.4,1.1,0,0.00,,,0.00,WUHU216HW,2013-09-01 09:01:00,
2013-09-01 05:07:00,70.4,0.0,29.69,WSW,248,1.1,1.6,0,0.00,,,0.00,WUHU216HW,2013-09-01 09:07:00,
2013-09-01 05:12:00,70.4,0.0,29.69,WSW,248,0.4,1.6,0,0.00,,,0.00,WUHU216HW,2013-09-01 09:12:00,
2013-09-01 05:17:00,70.4,0.0,29.70,WSW,248,0.0,0.7,0,0.00,,,0.00,WUHU216HW,2013-09-01 09:17:00,
2013-09-01 05:22:00,70.6,0.0,29.70,WSW,248,0.0,0.4,0,0.00,,,0.00,WUHU216HW,2013-09-01 09:22:00,
2013-09-01 05:27:00,70.6,0.0,29.70,WSW,248,0.4,0.4,0,0.00,,,0.00,WUHU216HW,2013-09-01 09:27:00,
2013-09-01 05:32:00,70.6,0.0,29.70,WSW,248,0.0,0.4,0,0.00,,,0.00,WUHU216HW,2013-09-01 09:32:00,
2013-09-01 05:37:00,70.6,0.0,29.70,WSW,248,0.0,0.9,0,0.00,,,0.00,WUHU216HW,2013-09-01 09:37:00,
2013-09-01 05:42:00,70.6,0.0,29.69,WSW,248,0.0,0.9,0,0.00,,,0.00,WUHU216HW,2013-09-01 09:42:00,
2013-09-01 05:47:00,70.6,0.0,29.69,WSW,248,0.0,0.7,0,0.00,,,0.00,WUHU216HW,2013-09-01 09:47:00,
2013-09-01 05:52:00,70.6,0.0,29.69,WSW,248,0.7,0.7,0,0.00,,,0.00,WUHU216HW,2013-09-01 09:52:00,
2013-09-01 05:57:00,70.2,0.0,29.69,SW,225,0.9,0.9,0,0.00,,,0.00,WUHU216HW,2013-09-01 09:57:00,
2013-09-01 06:02:00,70.2,0.0,29.69,SW,225,0.0,0.9,0,0.00,,,0.00,WUHU216HW,2013-09-01 10:02:00,
2013-09-01 06:07:00,70.0,0.0,29.69,SW,225,0.0,0.7,0,0.00,,,0.00,WUHU216HW,2013-09-01 10:07:00,
2013-09-01 06:12:00,70.0,0.0,29.69,SW,225,0.0,0.4,0,0.00,,,0.00,WUHU216HW,2013-09-01 10:12:00,
2013-09-01 06:17:00,70.0,0.0,29.69,SW,225,0.0,0.0,0,0.00,,,0.00,WUHU216HW,2013-09-01 10:17:00,
2013-09-01 06:22:00,70.0,0.0,29.70,SW,225,0.4,0.7,0,0.00,,,0.00,WUHU216HW,2013-09-01 10:22:00,
2013-09-01 06:27:00,70.0,0.0,29.70,SSE,158,0.0,1.1,0,0.00,,,0.00,WUHU216HW,2013-09-01 10:27:00,
2013-09-01 06:32:00,70.2,0.0,29.71,SSE,158,0.0,1.1,0,0.00,,,0.00,WUHU216HW,2013-09-01 10:32:00,
2013-09-01 06:37:00,70.2,0.0,29.71,South,180,0.2,0.7,0,0.00,,,0.00,WUHU216HW,2013-09-01 10:37:00,
2013-09-01 06:42:00,70.4,0.0,29.71,SW,225,0.0,0.7,0,0.00,,,0.00,WUHU216HW,2013-09-01 10:42:00,
2013-09-01 06:47:00,70.4,0.0,29.71,SW,225,0.9,0.9,0,0.00,,,0.00,WUHU216HW,2013-09-01 10:47:00,
2013-09-01 06:52:00,70.4,0.0,29.71,SSW,203,0.0,1.1,0,0.00,,,0.00,WUHU216HW,2013-09-01 10:52:00,
2013-09-01 06:57:00,70.6,0.0,29.72,SSW,203,1.1,1.1,0,0.00,,,0.00,WUHU216HW,2013-09-01 10:57:00,
2013-09-01 07:02:00,70.6,0.0,29.72,SW,225,0.9,1.1,0,0.00,,,0.00,WUHU216HW,2013-09-01 11:02:00,
2013-09-01 07:07:00,70.6,0.0,29.72,South,180,1.3,1.3,0,0.00,,,0.00,WUHU216HW,2013-09-01 11:07:00,
2013-09-01 07:12:00,70.7,0.0,29.72,SSW,203,0.7,2.0,0,0.00,,,0.00,WUHU216HW,2013-09-01 11:12:00,
2013-09-01 07:17:00,70.9,0.0,29.73,SSW,203,0.0,2.0,0,0.00,,,0.00,WUHU216HW,2013-09-01 11:17:00,
2013-09-01 07:22:00,70.9,0.0,29.72,SSW,203,0.0,0.7,0,0.00,,,0.00,WUHU216HW,2013-09-01 11:22:00,
2013-09-01 07:27:00,70.9,0.0,29.72,SSW,203,0.0,0.0,0,0.00,,,0.00,WUHU216HW,2013-09-01 11:27:00,
2013-09-01 07:32:00,71.1,0.0,29.72,SSW,203,0.4,0.4,0,0.00,,,0.00,WUHU216HW,2013-09-01 11:32:00,
2013-09-01 07:37:00,71.3,0.0,29.72,SSW,203,0.7,0.7,0,0.00,,,0.00,WUHU216HW,2013-09-01 11:37:00,
2013-09-01 07:42:00,71.5,0.0,29.72,SSW,203,0.0,0.9,0,0.00,,,0.00,WUHU216HW,2013-09-01 11:42:00,
2013-09-01 07:47:00,71.6,0.0,29.72,SSW,203,0.0,0.9,0,0.00,,,0.00,WUHU216HW,2013-09-01 11:47:00,
2013-09-01 07:52:00,72.0,0.0,29.72,SSW,203,0.0,0.0,0,0.00,,,0.00,WUHU216HW,2013-09-01 11:52:00,
2013-09-01 07:57:00,72.4,0.0,29.72,SSW,203,0.0,0.0,0,0.00,,,0.00,WUHU216HW,2013-09-01 11:57:00,
2013-09-01 08:02:00,72.7,0.0,29.72,SSW,203,0.7,0.7,0,0.00,,,0.00,WUHU216HW,2013-09-01 12:02:00,
2013-09-01 08:07:00,72.9,0.0,29.72,SSW,203,0.0,0.7,0,0.00,,,0.00,WUHU216HW,2013-09-01 12:07:00,
2013-09-01 08:12:00,73.6,0.0,29.72,SSW,203,1.1,1.1,0,0.00,,,0.00,WUHU216HW,2013-09-01 12:12:00,
2013-09-01 08:17:00,74.2,0.0,29.72,SSW,203,1.3,1.6,0,0.00,,,0.00,WUHU216HW,2013-09-01 12:17:00,
2013-09-01 08:22:00,74.5,0.0,29.72,SW,225,0.7,1.6,0,0.00,,,0.00,WUHU216HW,2013-09-01 12:22:00,
2013-09-01 08:27:00,74.5,0.0,29.72,SW,225,0.7,1.6,0,0.00,,,0.00,WUHU216HW,2013-09-01 12:27:00,
2013-09-01 08:32:00,75.8,0.0,29.73,South,180,1.1,1.6,0,0.00,,,0.00,WUHU216HW,2013-09-01 12:32:00,
2013-09-01 08:37:00,76.1,0.0,29.73,SW,225,0.4,1.6,0,0.00,,,0.00,WUHU216HW,2013-09-01 12:37:00,
2013-09-01 08:42:00,77.4,0.0,29.72,WSW,248,0.0,1.8,0,0.00,,,0.00,WUHU216HW,2013-09-01 12:42:00,
2013-09-01 08:47:00,77.4,0.0,29.72,SW,225,1.3,2.5,0,0.00,,,0.00,WUHU216HW,2013-09-01 12:47:00,
2013-09-01 08:52:00,77.2,0.0,29.72,SW,225,1.1,2.5,0,0.00,,,0.00,WUHU216HW,2013-09-01 12:52:00,
2013-09-01 08:57:00,77.4,0.0,29.72,SSW,203,1.3,1.6,0,0.00,,,0.00,WUHU216HW,2013-09-01 12:57:00,
2013-09-01 09:02:00,77.4,0.0,29.72,WSW,248,2.5,2.5,0,0.00,,,0.00,WUHU216HW,2013-09-01 13:02:00,
2013-09-01 09:07:00,77.4,0.0,29.72,South,180,1.8,2.5,0,0.00,,,0.00,WUHU216HW,2013-09-01 13:07:00,
2013-09-01 09:12:00,77.0,0.0,29.72,WSW,248,1.8,2.2,0,0.00,,,0.00,WUHU216HW,2013-09-01 13:12:00,
2013-09-01 09:17:00,76.9,0.0,29.72,SSE,158,0.0,2.9,0,0.00,,,0.00,WUHU216HW,2013-09-01 13:17:00,
2013-09-01 09:22:00,76.9,0.0,29.72,SSE,158,0.0,2.9,0,0.00,,,0.00,WUHU216HW,2013-09-01 13:22:00,
2013-09-01 09:27:00,77.0,0.0,29.72,SSW,203,0.7,0.7,0,0.00,,,0.00,WUHU216HW,2013-09-01 13:27:00,
2013-09-01 09:32:00,77.0,0.0,29.72,SSW,203,0.0,0.7,0,0.00,,,0.00,WUHU216HW,2013-09-01 13:32:00,
2013-09-01 09:37:00,77.0,0.0,29.72,SSW,203,0.9,0.9,0,0.00,,,0.00,WUHU216HW,2013-09-01 13:37:00,
2013-09-01 09:42:00,77.0,0.0,29.72,SSW,203,1.3,1.3,0,0.00,,,0.00,WUHU216HW,2013-09-01 13:42:00,
2013-09-01 09:47:00,77.9,0.0,29.72,South,180,1.1,1.3,0,0.00,,,0.00,WUHU216HW,2013-09-01 13:47:00,
2013-09-01 09:52:00,79.2,0.0,29.72,SW,225,2.5,3.4,0,0.00,,,0.00,WUHU216HW,2013-09-01 13:52:00,
2013-09-01 09:57:00,79.9,0.0,29.72,SW,225,3.1,3.4,0,0.00,,,0.00,WUHU216HW,2013-09-01 13:57:00,
2013-09-01 10:02:00,80.3,0.0,29.72,SW,225,1.8,3.1,0,0.00,,,0.00,WUHU216HW,2013-09-01 14:02:00,
2013-09-01 10:07:00,80.3,0.0,29.72,WSW,248,1.1,3.1,0,0.00,,,0.00,WUHU216HW,2013-09-01 14:07:00,
2013-09-01 10:12:00,81.4,0.0,29.72,SSW,203,1.6,1.6,0,0.00,,,0.00,WUHU216HW,2013-09-01 14:12:00,
2013-09-01 10:17:00,81.7,0.0,29.72,SW,225,1.1,1.8,0,0.00,,,0.00,WUHU216HW,2013-09-01 14:17:00,
2013-09-01 10:22:00,81.7,0.0,29.72,SSW,203,1.1,1.8,0,0.00,,,0.00,WUHU216HW,2013-09-01 14:22:00,
2013-09-01 10:27:00,81.4,0.0,29.72,SW,225,0.9,1.1,0,0.00,,,0.00,WUHU216HW,2013-09-01 14:27:00,
2013-09-01 10:32:00,81.4,0.0,29.72,South,180,1.6,1.8,0,0.00,,,0.00,WUHU216HW,2013-09-01 14:32:00,
2013-09-01 10:37:00,81.0,0.0,29.72,SW,225,1.1,2.5,0,0.00,,,0.00,WUHU216HW,2013-09-01 14:37:00,
2013-09-01 10:42:00,81.4,0.0,29.72,South,180,0.4,2.5,0,0.00,,,0.00,WUHU216HW,2013-09-01 14:42:00,
2013-09-01 10:47:00,81.7,0.0,29.72,South,180,1.3,2.9,0,0.00,,,0.00,WUHU216HW,2013-09-01 14:47:00,
2013-09-01 10:52:00,81.9,0.0,29.72,WSW,248,1.6,2.9,0,0.00,,,0.00,WUHU216HW,2013-09-01 14:52:00,
2013-09-01 10:57:00,82.1,0.0,29.72,SSE,158,1.8,2.5,0,0.00,,,0.00,WUHU216HW,2013-09-01 14:57:00,
2013-09-01 11:02:00,82.1,0.0,29.72,WSW,248,1.8,4.0,0,0.00,,,0.00,WUHU216HW,2013-09-01 15:02:00,
2013-09-01 11:07:00,82.3,0.0,29.72,SSW,203,1.8,4.0,0,0.00,,,0.00,WUHU216HW,2013-09-01 15:07:00,
2013-09-01 11:12:00,82.8,0.0,29.72,South,180,1.1,4.0,0,0.00,,,0.00,WUHU216HW,2013-09-01 15:12:00,
2013-09-01 11:17:00,82.8,0.0,29.72,South,180,2.0,4.0,0,0.00,,,0.00,WUHU216HW,2013-09-01 15:17:00,
2013-09-01 11:22:00,81.7,0.0,29.73,SSE,158,2.0,2.5,0,0.00,,,0.00,WUHU216HW,2013-09-01 15:22:00,
2013-09-01 11:27:00,80.6,0.0,29.73,South,180,2.5,3.4,0,0.00,,,0.00,WUHU216HW,2013-09-01 15:27:00,
2013-09-01 11:32:00,80.5,0.0,29.73,SSE,158,1.1,3.4,0,0.00,,,0.00,WUHU216HW,2013-09-01 15:32:00,
2013-09-01 11:37:00,79.9,0.0,29.73,WSW,248,3.4,3.4,0,0.00,,,0.00,WUHU216HW,2013-09-01 15:37:00,
2013-09-01 11:42:00,79.4,0.0,29.73,SSE,158,2.9,4.3,0,0.00,,,0.00,WUHU216HW,2013-09-01 15:42:00,
2013-09-01 11:47:00,78.8,0.0,29.73,SW,225,3.4,4.3,0,0.00,,,0.00,WUHU216HW,2013-09-01 15:47:00,
2013-09-01 11:52:00,78.5,0.0,29.72,SSW,203,1.1,3.4,0,0.00,,,0.00,WUHU216HW,2013-09-01 15:52:00,
2013-09-01 11:57:00,78.1,0.0,29.72,South,180,2.5,4.0,0,0.00,,,0.00,WUHU216HW,2013-09-01 15:57:00,
2013-09-01 12:02:00,78.1,0.0,29.72,SW,225,2.7,4.0,0,0.00,,,0.00,WUHU216HW,2013-09-01 16:02:00,
2013-09-01 12:07:00,77.4,0.0,29.72,SSW,203,1.1,3.1,0,0.00,,,0.00,WUHU216HW,2013-09-01 16:07:00,
2013-09-01 12:12:00,77.0,0.0,29.72,SW,225,1.3,3.1,0,0.00,,,0.00,WUHU216HW,2013-09-01 16:12:00,
2013-09-01 12:17:00,76.5,0.0,29.71,SSE,158,1.3,1.8,0,0.00,,,0.00,WUHU216HW,2013-09-01 16:17:00,
2013-09-01 12:22:00,76.5,0.0,29.71,SSW,203,1.3,1.8,0,0.00,,,0.00,WUHU216HW,2013-09-01 16:22:00,
2013-09-01 12:27:00,76.5,0.0,29.72,South,180,2.5,2.5,0,0.00,,,0.00,WUHU216HW,2013-09-01 16:27:00,
2013-09-01 12:32:00,76.3,0.0,29.72,South,180,2.0,2.5,0,0.00,,,0.00,WUHU216HW,2013-09-01 16:32:00,
2013-09-01 12:37:00,76.3,0.0,29.72,SW,225,0.0,2.0,0,0.00,,,0.00,WUHU216HW,2013-09-01 16:37:00,
2013-09-01 12:42:00,76.0,0.0,29.72,NE,45,1.1,3.1,0,0.00,,,0.00,WUHU216HW,2013-09-01 16:42:00,
2013-09-01 12:47:00,76.0,0.0,29.72,SE,135,1.6,3.1,0,0.00,,,0.00,WUHU216HW,2013-09-01 16:47:00,
2013-09-01 12:52:00,76.1,0.0,29.72,SSW,203,2.7,2.7,0,0.00,,,0.00,WUHU216HW,2013-09-01 16:52:00,
2013-09-01 12:57:00,76.5,0.0,29.72,SSW,203,3.4,3.4,0,0.00,,,0.00,WUHU216HW,2013-09-01 16:57:00,
2013-09-01 13:02:00,77.2,0.0,29.72,SW,225,0.9,3.4,0,0.00,,,0.00,WUHU216HW,2013-09-01 17:02:00,
2013-09-01 13:07:00,77.6,0.0,29.72,SW,225,1.3,1.6,0,0.00,,,0.00,WUHU216HW,2013-09-01 17:07:00,
2013-09-01 13:12:00,78.1,0.0,29.71,South,180,0.9,1.6,0,0.00,,,0.00,WUHU216HW,2013-09-01 17:12:00,
2013-09-01 13:17:00,78.5,0.0,29.71,South,180,1.1,1.6,0,0.00,,,0.00,WUHU216HW,2013-09-01 17:17:00,
2013-09-01 13:22:00,78.5,0.0,29.72,ESE,113,0.4,1.1,0,0.00,,,0.00,WUHU216HW,2013-09-01 17:22:00,
2013-09-01 13:27:00,78.7,0.0,29.72,WSW,248,0.9,1.3,0,0.00,,,0.00,WUHU216HW,2013-09-01 17:27:00,
2013-09-01 13:32:00,78.8,0.0,29.71,SSE,158,2.5,2.5,0,0.00,,,0.00,WUHU216HW,2013-09-01 17:32:00,
2013-09-01 13:37:00,78.8,0.0,29.71,South,180,2.2,2.5,0,0.00,,,0.00,WUHU216HW,2013-09-01 17:37:00,
2013-09-01 13:43:00,78.5,0.0,29.71,SW,225,1.8,4.0,0,0.00,,,0.00,WUHU216HW,2013-09-01 17:43:00,
2013-09-01 13:48:00,78.3,0.0,29.71,SW,225,0.4,4.0,0,0.00,,,0.00,WUHU216HW,2013-09-01 17:48:00,
2013-09-01 13:53:00,78.5,0.0,29.70,SW,225,1.6,2.5,0,0.00,,,0.00,WUHU216HW,2013-09-01 17:53:00,
2013-09-01 13:58:00,78.8,0.0,29.71,West,270,0.2,1.6,0,0.00,,,0.00,WUHU216HW,2013-09-01 17:58:00,
2013-09-01 14:03:00,79.2,0.0,29.71,SSW,203,1.3,1.6,0,0.00,,,0.00,WUHU216HW,2013-09-01 18:03:00,
2013-09-01 14:08:00,79.6,0.0,29.71,SW,225,0.7,1.3,0,0.00,,,0.00,WUHU216HW,2013-09-01 18:08:00,
2013-09-01 14:13:00,80.3,0.0,29.71,South,180,1.8,1.8,0,0.00,,,0.00,WUHU216HW,2013-09-01 18:13:00,
2013-09-01 14:18:00,81.0,0.0,29.71,SSE,158,1.8,2.0,0,0.00,,,0.00,WUHU216HW,2013-09-01 18:18:00,
2013-09-01 14:23:00,81.7,0.0,29.71,WSW,248,2.5,2.5,0,0.00,,,0.00,WUHU216HW,2013-09-01 18:23:00,
2013-09-01 14:28:00,81.9,0.0,29.70,WSW,248,0.4,3.4,0,0.00,,,0.00,WUHU216HW,2013-09-01 18:28:00,
2013-09-01 14:33:00,82.3,0.0,29.70,ESE,113,1.3,3.4,0,0.00,,,0.00,WUHU216HW,2013-09-01 18:33:00,
2013-09-01 14:38:00,82.1,0.0,29.70,SSE,158,1.3,2.7,0,0.00,,,0.00,WUHU216HW,2013-09-01 18:38:00,
2013-09-01 14:43:00,82.1,0.0,29.70,WSW,248,1.6,2.7,0,0.00,,,0.00,WUHU216HW,2013-09-01 18:43:00,
2013-09-01 14:48:00,82.4,0.0,29.70,SE,135,1.1,3.4,0,0.00,,,0.00,WUHU216HW,2013-09-01 18:48:00,
2013-09-01 14:53:00,82.4,0.0,29.70,SW,225,1.3,3.4,0,0.00,,,0.00,WUHU216HW,2013-09-01 18:53:00,
2013-09-01 14:58:00,82.6,0.0,29.70,SW,225,1.8,3.4,0,0.00,,,0.00,WUHU216HW,2013-09-01 18:58:00,
2013-09-01 15:03:00,82.8,0.0,29.70,SW,225,3.4,3.4,0,0.00,,,0.00,WUHU216HW,2013-09-01 19:03:00,
2013-09-01 15:08:00,82.8,0.0,29.70,SE,135,0.9,3.4,0,0.00,,,0.00,WUHU216HW,2013-09-01 19:08:00,
2013-09-01 15:13:00,83.2,0.0,29.70,SW,225,1.1,2.5,0,0.00,,,0.00,WUHU216HW,2013-09-01 19:13:00,
2013-09-01 15:18:00,83.2,0.0,29.70,North,0,0.0,2.5,0,0.00,,,0.00,WUHU216HW,2013-09-01 19:18:00,
2013-09-01 15:23:00,83.5,0.0,29.69,SW,225,1.1,1.3,0,0.00,,,0.00,WUHU216HW,2013-09-01 19:23:00,
2013-09-01 15:28:00,83.7,0.0,29.69,SSE,158,4.3,4.3,0,0.00,,,0.00,WUHU216HW,2013-09-01 19:28:00,
2013-09-01 15:33:00,83.3,0.0,29.69,SW,225,1.1,4.3,0,0.00,,,0.00,WUHU216HW,2013-09-01 19:33:00,
2013-09-01 15:38:00,83.2,0.0,29.70,SSW,203,1.8,2.7,0,0.00,,,0.00,WUHU216HW,2013-09-01 19:38:00,
2013-09-01 15:43:00,82.8,0.0,29.70,South,180,2.0,2.0,0,0.00,,,0.00,WUHU216HW,2013-09-01 19:43:00,
2013-09-01 15:48:00,82.6,0.0,29.70,WSW,248,1.8,2.7,0,0.00,,,0.00,WUHU216HW,2013-09-01 19:48:00,
2013-09-01 15:53:00,82.4,0.0,29.70,WSW,248,1.3,2.7,0,0.00,,,0.00,WUHU216HW,2013-09-01 19:53:00,
2013-09-01 15:58:00,82.1,0.0,29.70,SE,135,1.8,2.7,0,0.00,,,0.00,WUHU216HW,2013-09-01 19:58:00,
2013-09-01 16:03:00,82.1,0.0,29.69,SSW,203,1.3,1.8,0,0.00,,,0.00,WUHU216HW,2013-09-01 20:03:00,
2013-09-01 16:08:00,82.3,0.0,29.69,SW,225,2.2,2.2,0,0.00,,,0.00,WUHU216HW,2013-09-01 20:08:00,
2013-09-01 16:13:00,82.3,0.0,29.69,SW,225,2.0,2.2,0,0.00,,,0.00,WUHU216HW,2013-09-01 20:13:00,
2013-09-01 16:18:00,81.7,0.0,29.69,ENE,68,1.8,2.0,0,0.00,,,0.00,WUHU216HW,2013-09-01 20:18:00,
2013-09-01 16:23:00,81.0,0.0,29.69,SW,225,1.8,2.5,0,0.00,,,0.00,WUHU216HW,2013-09-01 20:23:00,
2013-09-01 16:28:00,80.6,0.0,29.68,SSE,158,3.8,3.8,0,0.00,,,0.00,WUHU216HW,2013-09-01 20:28:00,
2013-09-01 16:33:00,80.5,0.0,29.68,SW,225,0.4,3.8,0,0.00,,,0.00,WUHU216HW,2013-09-01 20:33:00,
2013-09-01 16:38:00,80.5,0.0,29.68,SSW,203,1.1,1.8,0,0.00,,,0.00,WUHU216HW,2013-09-01 20:38:00,
2013-09-01 16:43:00,80.5,0.0,29.68,SW,225,1.8,4.0,0,0.00,,,0.00,WUHU216HW,2013-09-01 20:43:00,
2013-09-01 16:48:00,80.5,0.0,29.68,WSW,248,3.4,4.0,0,0.00,,,0.00,WUHU216HW,2013-09-01 20:48:00,
2013-09-01 16:53:00,80.3,0.0,29.69,SE,135,2.7,3.4,0,0.00,,,0.00,WUHU216HW,2013-09-01 20:53:00,
2013-09-01 16:58:00,79.9,0.0,29.69,SW,225,2.5,3.8,0,0.00,,,0.00,WUHU216HW,2013-09-01 20:58:00,
2013-09-01 17:03:00,79.4,0.0,29.68,NW,315,0.0,3.8,0,0.00,,,0.00,WUHU216HW,2013-09-01 21:03:00,
2013-09-01 17:08:00,79.2,0.0,29.68,SW,225,1.6,2.5,0,0.00,,,0.00,WUHU216HW,2013-09-01 21:08:00,
2013-09-01 17:13:00,79.2,0.0,29.68,SSW,203,2.2,2.2,0,0.00,,,0.00,WUHU216HW,2013-09-01 21:13:00,
2013-09-01 17:18:00,79.2,0.0,29.68,SSW,203,0.7,4.0,0,0.00,,,0.00,WUHU216HW,2013-09-01 21:18:00,
2013-09-01 17:23:00,79.0,0.0,29.68,SW,225,0.4,4.0,0,0.00,,,0.00,WUHU216HW,2013-09-01 21:23:00,
2013-09-01 17:28:00,78.5,0.0,29.67,SSW,203,2.7,4.0,0,0.00,,,0.00,WUHU216HW,2013-09-01 21:28:00,
2013-09-01 17:33:00,78.5,0.0,29.68,SW,225,0.7,4.0,0,0.00,,,0.00,WUHU216HW,2013-09-01 21:33:00,
2013-09-01 17:38:00,78.1,0.0,29.68,SSW,203,1.1,2.7,0,0.00,,,0.00,WUHU216HW,2013-09-01 21:38:00,
2013-09-01 17:43:00,78.1,0.0,29.69,WSW,248,1.1,1.8,0,0.00,,,0.00,WUHU216HW,2013-09-01 21:43:00,
2013-09-01 17:48:00,77.4,0.0,29.69,SW,225,1.8,2.7,0,0.00,,,0.00,WUHU216HW,2013-09-01 21:48:00,
2013-09-01 17:53:00,77.4,0.0,29.69,South,180,1.8,2.7,0,0.00,,,0.00,WUHU216HW,2013-09-01 21:53:00,
2013-09-01 17:58:00,77.0,0.0,29.69,South,180,2.5,2.5,0,0.00,,,0.00,WUHU216HW,2013-09-01 21:58:00,
2013-09-01 18:03:00,76.7,0.0,29.69,SSW,203,0.4,4.0,0,0.00,,,0.00,WUHU216HW,2013-09-01 22:03:00,
2013-09-01 18:08:00,76.7,0.0,29.69,South,180,0.7,4.5,0,0.00,,,0.00,WUHU216HW,2013-09-01 22:08:00,
2013-09-01 18:13:00,76.3,0.0,29.69,SW,225,1.6,4.5,0,0.00,,,0.00,WUHU216HW,2013-09-01 22:13:00,
2013-09-01 18:18:00,76.3,0.0,29.69,SSW,203,0.7,1.6,0,0.00,,,0.00,WUHU216HW,2013-09-01 22:18:00,
2013-09-01 18:23:00,76.3,0.0,29.69,South,180,4.0,4.0,0,0.00,,,0.00,WUHU216HW,2013-09-01 22:23:00,
2013-09-01 18:28:00,76.1,0.0,29.69,North,0,0.7,4.0,0,0.00,,,0.00,WUHU216HW,2013-09-01 22:28:00,
2013-09-01 18:33:00,75.8,0.0,29.69,SSW,203,1.3,3.8,0,0.00,,,0.00,WUHU216HW,2013-09-01 22:33:00,
2013-09-01 18:38:00,75.6,0.0,29.69,SW,225,1.3,3.8,0,0.00,,,0.00,WUHU216HW,2013-09-01 22:38:00,
2013-09-01 18:43:00,75.4,0.0,29.69,SW,225,0.9,2.0,0,0.00,,,0.00,WUHU216HW,2013-09-01 22:43:00,
2013-09-01 18:48:00,75.1,0.0,29.69,SSW,203,0.4,1.6,0,0.00,,,0.00,WUHU216HW,2013-09-01 22:48:00,
2013-09-01 18:53:00,74.9,0.0,29.69,SSW,203,0.0,1.6,0,0.00,,,0.00,WUHU216HW,2013-09-01 22:53:00,
2013-09-01 18:58:00,74.9,0.0,29.69,SSW,203,0.9,0.9,0,0.00,,,0.00,WUHU216HW,2013-09-01 22:58:00,
2013-09-01 19:03:00,74.5,0.0,29.69,WSW,248,1.3,1.3,0,0.00,,,0.00,WUHU216HW,2013-09-01 23:03:00,
2013-09-01 19:08:00,74.3,0.0,29.69,WSW,248,0.0,1.3,0,0.00,,,0.00,WUHU216HW,2013-09-01 23:08:00,
2013-09-01 19:13:00,74.2,0.0,29.69,SW,225,0.2,1.1,0,0.00,,,0.00,WUHU216HW,2013-09-01 23:13:00,
2013-09-01 19:18:00,73.8,0.0,29.69,SW,225,0.4,1.6,0,0.00,,,0.00,WUHU216HW,2013-09-01 23:18:00,
2013-09-01 19:23:00,73.6,0.0,29.69,SW,225,0.2,1.6,0,0.00,,,0.00,WUHU216HW,2013-09-01 23:23:00,
2013-09-01 19:28:00,73.4,0.0,29.69,SW,225,0.9,1.1,0,0.00,,,0.00,WUHU216HW,2013-09-01 23:28:00,
2013-09-01 19:33:00,73.3,0.0,29.69,SW,225,0.0,1.1,0,0.00,,,0.00,WUHU216HW,2013-09-01 23:33:00,
2013-09-01 19:38:00,73.1,0.0,29.69,SW,225,0.0,0.0,0,0.00,,,0.00,WUHU216HW,2013-09-01 23:38:00,
2013-09-01 19:43:00,72.9,0.0,29.69,SW,225,0.9,0.9,0,0.00,,,0.00,WUHU216HW,2013-09-01 23:43:00,
2013-09-01 19:48:00,72.7,0.0,29.69,SW,225,0.4,0.9,0,0.00,,,0.00,WUHU216HW,2013-09-01 23:48:00,
2013-09-01 19:53:00,72.5,0.0,29.69,SW,225,1.6,2.0,0,0.00,,,0.00,WUHU216HW,2013-09-01 23:53:00,
2013-09-01 19:58:00,72.4,0.0,29.69,SSW,203,0.0,2.0,0,0.00,,,0.00,WUHU216HW,2013-09-01 23:58:00,
2013-09-01 20:03:00,72.4,0.0,29.69,SSW,203,0.0,1.3,0,0.00,,,0.00,WUHU216HW,2013-09-02 00:03:00,
2013-09-01 20:08:00,72.2,0.0,29.69,SSW,203,0.4,1.1,0,0.00,,,0.00,WUHU216HW,2013-09-02 00:08:00,
2013-09-01 20:13:00,72.2,0.0,29.70,South,180,0.0,1.1,0,0.00,,,0.00,WUHU216HW,2013-09-02 00:13:00,
2013-09-01 20:18:00,72.4,0.0,29.70,SSW,203,0.4,1.1,0,0.00,,,0.00,WUHU216HW,2013-09-02 00:18:00,
2013-09-01 20:23:00,72.2,0.0,29.70,SSW,203,0.4,1.1,0,0.00,,,0.00,WUHU216HW,2013-09-02 00:23:00,
2013-09-01 20:28:00,72.2,0.0,29.70,SSW,203,0.0,1.1,0,0.00,,,0.00,WUHU216HW,2013-09-02 00:28:00,
2013-09-01 20:33:00,72.2,0.0,29.70,SSW,203,0.4,0.9,0,0.00,,,0.00,WUHU216HW,2013-09-02 00:33:00,
2013-09-01 20:38:00,72.0,0.0,29.71,SSW,203,0.2,1.6,0,0.00,,,0.00,WUHU216HW,2013-09-02 00:38:00,
2013-09-01 20:44:00,72.0,0.0,29.71,SSW,203,0.9,1.6,0,0.00,,,0.00,WUHU216HW,2013-09-02 00:44:00,
2013-09-01 20:49:00,72.2,0.0,29.71,SE,135,1.1,1.8,0,0.00,,,0.00,WUHU216HW,2013-09-02 00:49:00,
2013-09-01 20:54:00,72.0,0.0,29.71,SSW,203,3.4,3.4,0,0.00,,,0.00,WUHU216HW,2013-09-02 00:54:00,
2013-09-01 20:59:00,72.0,0.0,29.71,SSW,203,0.0,3.4,0,0.00,,,0.00,WUHU216HW,2013-09-02 00:59:00,
2013-09-01 21:04:00,72.0,0.0,29.71,SSW,203,0.4,2.7,0,0.00,,,0.00,WUHU216HW,2013-09-02 01:04:00,
2013-09-01 21:09:00,72.0,0.0,29.72,SW,225,1.8,2.7,0,0.00,,,0.00,WUHU216HW,2013-09-02 01:09:00,
2013-09-01 21:14:00,71.8,0.0,29.71,SSW,203,1.1,3.4,0,0.00,,,0.00,WUHU216HW,2013-09-02 01:14:00,
2013-09-01 21:19:00,71.8,0.0,29.71,SSW,203,0.7,3.4,0,0.00,,,0.00,WUHU216HW,2013-09-02 01:19:00,
2013-09-01 21:24:00,71.8,0.0,29.71,SSW,203,0.0,0.9,0,0.00,,,0.00,WUHU216HW,2013-09-02 01:24:00,
2013-09-01 21:29:00,71.6,0.0,29.72,SSW,203,1.1,1.1,0,0.00,,,0.00,WUHU216HW,2013-09-02 01:29:00,
2013-09-01 21:34:00,71.6,0.0,29.72,SSW,203,0.0,1.1,0,0.00,,,0.00,WUHU216HW,2013-09-02 01:34:00,
2013-09-01 21:39:00,71.6,0.0,29.71,SW,225,0.0,0.0,0,0.00,,,0.00,WUHU216HW,2013-09-02 01:39:00,
2013-09-01 21:44:00,71.5,0.0,29.72,SSW,203,0.2,0.2,0,0.00,,,0.00,WUHU216HW,2013-09-02 01:44:00,
2013-09-01 21:49:00,71.5,0.0,29.71,SSW,203,2.0,2.0,0,0.00,,,0.00,WUHU216HW,2013-09-02 01:49:00,
2013-09-01 21:54:00,71.3,0.0,29.71,SSW,203,0.0,2.0,0,0.00,,,0.00,WUHU216HW,2013-09-02 01:54:00,
2013-09-01 21:59:00,71.3,0.0,29.71,West,270,0.0,0.9,0,0.00,,,0.00,WUHU216HW,2013-09-02 01:59:00,
2013-09-01 22:04:00,71.1,0.0,29.71,West,270,0.0,1.6,0,0.00,,,0.00,WUHU216HW,2013-09-02 02:04:00,
2013-09-01 22:09:00,71.1,0.0,29.71,West,270,0.0,1.6,0,0.00,,,0.00,WUHU216HW,2013-09-02 02:09:00,
2013-09-01 22:14:00,71.1,0.0,29.71,WSW,248,1.8,1.8,0,0.00,,,0.00,WUHU216HW,2013-09-02 02:14:00,
2013-09-01 22:19:00,71.1,0.0,29.71,WSW,248,0.2,1.8,0,0.00,,,0.00,WUHU216HW,2013-09-02 02:19:00,
2013-09-01 22:24:00,71.1,0.0,29.71,West,270,0.0,1.1,0,0.00,,,0.00,WUHU216HW,2013-09-02 02:24:00,
2013-09-01 22:29:00,71.3,0.0,29.72,West,270,0.4,0.4,0,0.00,,,0.00,WUHU216HW,2013-09-02 02:29:00,
2013-09-01 22:34:00,71.5,0.0,29.71,SE,135,1.1,1.1,0,0.00,,,0.00,WUHU216HW,2013-09-02 02:34:00,
2013-09-01 22:39:00,71.5,0.0,29.71,NE,45,0.4,3.6,0,0.00,,,0.00,WUHU216HW,2013-09-02 02:39:00,
2013-09-01 22:44:00,71.5,0.0,29.71,WNW,293,1.1,3.6,0,0.00,,,0.00,WUHU216HW,2013-09-02 02:44:00,
2013-09-01 22:49:00,71.5,0.0,29.71,South,180,0.4,1.1,0,0.00,,,0.00,WUHU216HW,2013-09-02 02:49:00,
2013-09-01 22:54:00,71.5,0.0,29.71,SW,225,1.6,1.6,0,0.00,,,0.00,WUHU216HW,2013-09-02 02:54:00,
2013-09-01 22:59:00,71.5,0.0,29.70,SSW,203,0.4,2.7,0,0.00,,,0.00,WUHU216HW,2013-09-02 02:59:00,
2013-09-01 23:04:00,71.5,0.0,29.71,SW,225,3.1,3.1,0,0.00,,,0.00,WUHU216HW,2013-09-02 03:04:00,
2013-09-01 23:09:00,71.6,0.0,29.71,SSW,203,0.9,3.8,0,0.00,,,0.00,WUHU216HW,2013-09-02 03:09:00,
2013-09-01 23:14:00,71.6,0.0,29.70,SSE,158,1.1,3.8,0,0.00,,,0.00,WUHU216HW,2013-09-02 03:14:00,
2013-09-01 23:19:00,71.6,0.0,29.70,SW,225,1.8,1.8,0,0.00,,,0.00,WUHU216HW,2013-09-02 03:19:00,
2013-09-01 23:24:00,71.6,0.0,29.70,East,90,1.3,1.8,0,0.00,,,0.00,WUHU216HW,2013-09-02 03:24:00,
2013-09-01 23:29:00,71.6,0.0,29.70,SW,225,0.4,1.8,0,0.00,,,0.00,WUHU216HW,2013-09-02 03:29:00,
2013-09-01 23:34:00,71.6,0.0,29.70,SW,225,1.8,2.2,0,0.00,,,0.00,WUHU216HW,2013-09-02 03:34:00,
2013-09-01 23:39:00,71.6,0.0,29.69,SSE,158,0.0,2.2,0,0.00,,,0.00,WUHU216HW,2013-09-02 03:39:00,
2013-09-01 23:44:00,71.6,0.0,29.69,SSW,203,0.9,2.2,0,0.00,,,0.00,WUHU216HW,2013-09-02 03:44:00,
2013-09-01 23:49:00,71.6,0.0,29.69,SSW,203,0.4,1.3,0,0.00,,,0.00,WUHU216HW,2013-09-02 03:49:00,
2013-09-01 23:54:00,71.6,0.0,29.69,SSW,203,0.0,2.5,0,0.00,,,0.00,WUHU216HW,2013-09-02 03:54:00,
2013-09-01 23:59:00,71.6,0.0,29.69,WSW,248,1.8,2.5,0,0.00,,,0.00,WUHU216HW,2013-09-02 03:59:00,